Location: WHS+Essen
(51.3947°N, 6.9794°E)
Time: 20:38:37
(UTC+02:00)

ISS - Pass Details

Date: 24 May 2019
Orbit: 408 x 418 km, 51.6° (Epoch: 17 June)

Event Time Altitude Azimuth Distance (km) Brightness Sun altitude
Rises 22:34:16 0° 263° (W) 2,352 0.6 -8.3°
Reaches altitude 10° 22:36:21 10° 263° (W) 1,492 -0.5 -8.5°
Maximum altitude 22:39:42 88° 350° (N) 423 -3.7 -8.8°
Drops below altitude 10° 22:43:05 10° 84° (E) 1,500 -1.3 -9.1°
Sets 22:45:11 0° 84° (E) 2,366 -0.3 -9.4°
Enters shadow 22:45:18 - 84° (E) 2,411 -0.2 -9.4°
